Regional Weather Roundup
Issued by NWS

Home | Current Version | Previous Version | Text Only | Print | Product List | Glossary On
Versions: 1 2 3 4 5 6 7 8 9 10 11 12 13 14 15 16 17 18 19 20 21 22 23 24 25 26 27 28 29 30 31 32 33 34 35 36 37 38 39 40 41 42 43 44 45 46 47 48 49 50
000
ASUS43 KLMK 290910
RWRKY
KENTUCKY REGIONAL WEATHER ROUNDUP
NATIONAL WEATHER SERVICE LOUISVILLE KY
500 AM EDT WED JUL 29 2015

NOTE "FAIR" INDICATES FEW OR NO CLOUDS BELOW 12,000 FEET
WITH NO SIGNIFICANT WEATHER AND/OR OBSTRUCTIONS TO VISIBILITY.

KYZ001>023-026-027-061>063-070>075-291000-
WESTERN AND SOUTH CENTRAL KENTUCKY

CITY           SKY/WX    TMP DP  RH WIND       PRES   REMARKS
PADUCAH        CLEAR     75  70  84 CALM      29.96R
HENDERSON      CLEAR     73  72  94 CALM      29.95R
OWENSBORO      NOT AVBL
HOPKINSVILLE   CLEAR     74  72  95 SE2       29.97S
BOWLING GREEN  PTCLDY    72  70  93 CALM      29.99R
GLASGOW          N/A    N/A N/A N/A CALM      29.99S FOG
$$

KYZ024-025-028>034-038-045-046-053-291000-
NORTH CENTRAL KENTUCKY

CITY           SKY/WX    TMP DP  RH WIND       PRES   REMARKS
LOUISVILLE/SDF MOCLDY    78  73  84 SW5       29.97R
LOUISVILLE/LOU CLEAR     77  73  87 W3        29.98R
FORT KNOX      CLEAR     73  71  95 SW2       29.97R
$$

KYZ035>037-039>044-047>052-055>060-089>105-291000-
NORTHEAST KENTUCKY

CITY           SKY/WX    TMP DP  RH WIND       PRES   REMARKS
LEXINGTON      CLEAR     71  70  96 CALM      29.99R FOG
COVINGTON      PTCLDY    73  72  96 CALM      29.98R FOG
FRANKFORT      CLEAR     73  70  90 CALM      29.97R
$$

KYZ054-064>069-076>088-106>120-291000-
SOUTHEAST KENTUCKY

CITY           SKY/WX    TMP DP  RH WIND       PRES   REMARKS
JACKSON        FOG       73  71  93 CALM      30.00F VSB 1/4
LONDON         CLOUDY    71  68  90 CALM      30.00S FOG
SOMERSET       FOG       70  70 100 CALM      30.01S VSB 3/4
MIDDLESBORO    CLOUDY    73  72  98 CALM      30.00F
MONTICELLO     SUNNY     70  70 100 CALM      30.03R FOG
$$



USA.gov is the U.S. government's official web portal to all federal, state and local government web resources and services.